[Date Prev][Date Next][Thread Prev][Thread Next] - [Date Index][Thread Index][Author Index]

2 Line ISS Keps 5-8



ISS
1 25544U 98067A   02128.14686343  .00049000  00000-0  61619-3 0  4105
2 25544  51.6377 254.2278 0007829  46.1820 307.4219 15.59139065197779


----
Via the sarex mailing list at AMSAT.ORG courtesy of AMSAT-NA.
To unsubscribe, send "unsubscribe sarex" to Majordomo@amsat.org



AMSAT Top AMSAT Home